[[{"header":{"parameterUnit":"m.s-1","parameterCategory":1,"la1":30.2991,"la2":30.254,"lo1":-89.0895,"lo2":-89.0444,"dy":0.0017,"dx":0.0017,"nx":28,"ny":28,"refTime":"2023-09-07T21:00:00:Z","depth":0,"parameterNumber":2,"parameterNumberName":"U-component_of_WINDS"},"data":[0,0,0,0,0,0,0,0,0,0,0,0,0,0,0,0,0,0,0,0,0,0,0,0,0,0,0,0,0,0,0,0,0,0,0,0,0,0,0,0,0,0,0,0,0,0,0,0,0,0,0,0,0,0,0,0,0,0,1.9186,1.9188,0,1.9369,1.9372,1.9374,1.9474,1.9475,1.9475,1.9475,1.9662,1.9666,1.9671,0,0,0,0,0,0,0,0,0,0,0,0,0,1.8922,1.8927,1.9186,1.9188,1.9191,1.9369,1.9372,1.9374,1.9474,1.9475,1.9475,1.9475,1.966,1.9666,1.9671,0,0,0,0,0,0,0,0,0,0,0,0,0,1.9064,1.8928,1.9186,1.9262,1.9271,1.9369,1.9372,1.9375,1.9474,1.9475,1.9475,1.9475,1.9658,1.9665,1.9672,1.9707,0,0,1.9694,1.9697,0,0,0,0,0,0,0,0,1.9056,1.9074,1.9249,1.9257,1.9267,1.94,1.9347,1.9486,1.9474,1.9397,1.9475,1.9476,1.9574,1.9588,1.9621,1.9716,1.9724,1.9694,1.9699,1.9702,1.9704,0,0,0,0,0,0,0,1.9046,1.9066,1.9259,1.9251,1.9262,1.9287,1.9308,1.9374,1.9481,1.9404,1.9412,1.9432,1.9579,1.9614,1.9627,1.9727,1.9694,1.97,1.9705,1.9707,1.986,1.986,0,0,0,0,0,0,1.9024,1.9058,1.9253,1.9264,1.916,1.9292,1.9315,1.9357,1.948,1.95,1.9431,1.9436,1.9602,1.9618,1.9633,1.9684,1.9701,1.9708,1.9712,1.9861,1.986,1.986,0,0,0,0,0,0,1.9018,1.904,1.9246,1.9163,1.9191,1.9296,1.9342,1.936,1.9395,1.9501,1.9521,1.9448,1.9603,1.9624,1.9689,1.9692,1.9711,1.9718,1.9861,1.9861,1.986,1.9784,0,0,0,0,0,0,1.901,1.9038,1.9052,1.9163,1.9195,1.9297,1.9342,1.9363,1.9407,1.9415,1.9522,1.954,1.9605,1.9677,1.9695,1.9702,1.9723,1.9861,1.9861,1.986,1.9786,1.9781,1.9776,0,0,0,0,0,1.9,1.9023,1.9053,1.9076,1.9216,1.9297,1.9316,1.939,1.9407,1.9423,1.9491,1.9537,1.9688,1.9683,1.9704,1.9713,1.9861,1.9861,1.986,1.9789,1.9782,1.9776,0,0,0,0,0,0,1.891,1.9039,1.9073,1.9132,1.9203,1.9314,1.9336,1.9381,1.9448,1.9452,1.9542,1.9565,1.9621,1.9674,1.9666,1.9754,1.978,1.9783,1.9718,1.9712,1.9707,1.9693,1.9729,0,0,0,0,0,1.8897,1.8953,1.9062,1.9104,1.9138,1.923,1.9269,1.932,1.9397,1.9427,1.95,1.9573,1.9637,1.9677,1.9742,1.9794,1.9819,1.981,1.9805,1.98,1.9803,1.9835,1.9832,1.9859,1.9859,1.9859,0,0,1.8871,1.8948,1.8978,1.9088,1.9149,1.9205,1.9255,1.9312,1.9354,1.9436,1.9502,1.9558,1.9645,1.9703,1.9733,1.9749,1.9801,1.98,1.9795,1.9801,1.9834,1.9831,1.9829,1.9859,1.9859,1.9859,0,0,1.8851,1.8915,1.8958,1.9018,1.911,1.9171,1.9181,1.9286,1.9326,1.9394,1.9457,1.9508,1.9616,1.9676,1.972,1.9723,1.9768,1.9742,1.9715,1.9745,1.9743,1.9742,1.9744,1.9743,1.9744,1.9744,1.9744,0,1.8807,1.8894,1.8973,1.9027,1.9074,1.9151,1.9194,1.9248,1.9356,1.9387,1.9403,1.9541,1.9605,1.9679,1.9679,1.9713,1.9727,1.9731,1.9737,1.9737,1.9736,1.9739,1.9739,1.974,1.974,1.9741,1.9741,0,1.8835,1.8895,1.8918,1.902,1.907,1.9117,1.9204,1.9244,1.9291,1.9351,1.9419,1.9498,1.9581,1.9602,1.9648,1.9683,1.969,1.972,1.9748,1.9729,1.9733,1.9735,1.9735,1.9736,1.9737,1.9738,0,0,1.8765,1.8911,1.8918,1.8966,1.9073,1.912,1.9172,1.9253,1.9286,1.9357,1.9403,1.9493,1.9522,1.9572,1.9626,1.9652,1.965,1.968,1.9683,1.9672,1.9694,1.9671,1.9671,1.9681,1.9681,1.9681,1.9687,0,1.8761,1.8858,1.8931,1.9,1.9056,1.913,1.9175,1.9245,1.9302,1.9357,1.942,1.9483,1.9516,1.9547,1.9576,1.9644,1.9656,1.9645,1.9724,1.9726,1.9701,1.9673,1.9649,1.965,1.9689,1.969,1.969,0,1.8771,1.884,1.8914,1.9016,1.9042,1.9081,1.9162,1.9214,1.9295,1.9335,1.9391,1.9446,1.9504,1.9526,1.9606,1.9597,1.9634,1.9672,1.9674,1.9685,1.9707,1.9684,1.9653,1.9653,1.9693,1.9693,1.9692,0,1.8712,1.8825,1.8884,1.8922,1.9042,1.9068,1.9119,1.9201,1.9245,1.9315,1.9345,1.942,1.9461,1.9519,1.9593,1.9602,1.9666,1.9694,1.9701,1.9699,1.9712,1.971,1.9687,1.9734,1.9734,1.9734,1.9734,0,1.8701,1.8744,1.886,1.8896,1.8946,1.9029,1.9076,1.9134,1.9206,1.9254,1.9323,1.9367,1.9462,1.9518,1.9576,1.9635,1.9653,1.9687,1.9702,1.9681,1.9677,1.9707,1.9709,1.9734,1.9734,1.9734,1.9734,0,1.8645,1.8724,1.8794,1.8901,1.893,1.8962,1.9054,1.9092,1.9153,1.9214,1.9233,1.9328,1.9397,1.9477,1.9572,1.9612,1.9666,1.9688,1.9638,1.9647,1.965,1.9649,1.9646,1.965,1.9692,1.9692,1.9691,0,1.8633,1.8668,1.878,1.8817,1.8867,1.8926,1.8972,1.9055,1.91,1.9195,1.9222,1.9296,1.936,1.9468,1.9545,1.9619,1.9643,1.9637,1.9655,1.9633,1.9644,1.9641,1.9646,1.9632,1.9631,1.9631,1.963,0,1.8604,1.8642,1.8705,1.8782,1.8835,1.8899,1.8967,1.8993,1.909,1.9137,1.9209,1.9258,1.9356,1.9429,1.9512,1.9565,1.9614,1.9624,1.963,1.9609,1.9579,1.9596,1.9626,1.9624,1.9624,1.9625,1.9625,1.9625,1.8571,1.8605,1.8689,1.8758,1.8817,1.8878,1.892,1.8986,1.9047,1.9133,1.9179,1.925,1.9331,1.9447,1.9498,1.9555,1.9572,1.9579,1.9582,1.9583,1.9577,1.9569,1.9571,1.9571,1.9571,1.9571,1.9572,0,1.8546,1.8603,1.8665,1.8758,1.8811,1.8853,1.8929,1.8972,1.9033,1.9105,1.9167,1.9249,1.9321,1.9404,1.9481,1.951,1.9535,1.9528,1.9527,1.9538,1.9558,1.9545,1.9507,1.9507,1.9507,1.9507,1.9507,1.9507,1.8539,1.86,1.8647,1.8738,1.8796,1.8866,1.8907,1.8964,1.9021,1.911,1.917,1.9224,1.9301,1.9383,1.9451,1.9474,1.9499,1.9486,1.9515,1.9531,1.9537,1.9542,1.9531,1.949,1.949,1.9491,1.9491,1.9491]},{"header":{"parameterUnit":"m.s-1","parameterCategory":1,"la1":30.2991,"la2":30.254,"lo1":-89.0895,"lo2":-89.0444,"dy":0.0017,"dx":0.0017,"nx":28,"ny":28,"refTime":"2023-09-07T21:00:00:Z","depth":0,"parameterNumber":3,"parameterNumberName":"V-component_of_WINDS"},"data":[0,0,0,0,0,0,0,0,0,0,0,0,0,0,0,0,0,0,0,0,0,0,0,0,0,0,0,0,0,0,0,0,0,0,0,0,0,0,0,0,0,0,0,0,0,0,0,0,0,0,0,0,0,0,0,0,0,0,0.3301,0.3302,0,0.3333,0.3334,0.3334,0.3273,0.3271,0.3269,0.3267,0.3303,0.3306,0.3308,0,0,0,0,0,0,0,0,0,0,0,0,0,0.319,0.3192,0.3301,0.3302,0.3302,0.3333,0.3334,0.3334,0.3273,0.3271,0.3268,0.3266,0.3302,0.3305,0.3309,0,0,0,0,0,0,0,0,0,0,0,0,0,0.3232,0.3193,0.3301,0.3275,0.3273,0.3333,0.3334,0.3334,0.3274,0.3271,0.3267,0.3265,0.3301,0.3305,0.3309,0.3397,0,0,0.3322,0.3324,0,0,0,0,0,0,0,0,0.323,0.3236,0.3279,0.3277,0.3275,0.3296,0.3308,0.3355,0.3274,0.3274,0.3267,0.3263,0.3303,0.3307,0.332,0.3398,0.34,0.3323,0.3325,0.3327,0.3328,0,0,0,0,0,0,0,0.3227,0.3234,0.3314,0.328,0.3277,0.3263,0.3266,0.3316,0.3305,0.3273,0.3269,0.3273,0.3302,0.3316,0.332,0.34,0.3322,0.3326,0.3329,0.3331,0.3554,0.3557,0,0,0,0,0,0,0.3227,0.3232,0.3313,0.3315,0.3244,0.3267,0.327,0.3292,0.3304,0.3303,0.3276,0.327,0.331,0.3315,0.3321,0.3427,0.3327,0.3331,0.3333,0.3551,0.3555,0.3558,0,0,0,0,0,0,0.3225,0.3235,0.3312,0.3273,0.3281,0.3273,0.3298,0.3295,0.3309,0.3306,0.3304,0.3293,0.3308,0.3315,0.3378,0.3427,0.3333,0.3337,0.3547,0.3552,0.3556,0.3637,0,0,0,0,0,0,0.3222,0.3234,0.3267,0.3274,0.3284,0.3368,0.3301,0.3297,0.3316,0.3309,0.3321,0.3321,0.3306,0.3372,0.3383,0.3431,0.334,0.3542,0.3549,0.3555,0.363,0.3644,0.3656,0,0,0,0,0,0.3218,0.3289,0.3269,0.3279,0.3324,0.3371,0.3377,0.3358,0.332,0.3354,0.3352,0.332,0.3419,0.3379,0.3391,0.3441,0.3539,0.3547,0.3554,0.3624,0.3641,0.3656,0,0,0,0,0,0,0.3289,0.3289,0.3267,0.3342,0.3357,0.336,0.3402,0.3376,0.3403,0.3395,0.3371,0.3374,0.3443,0.3447,0.3404,0.3527,0.3473,0.3483,0.3522,0.3539,0.3551,0.3551,0.3344,0,0,0,0,0,0.3313,0.3351,0.3348,0.3415,0.3423,0.3412,0.3431,0.3415,0.343,0.3436,0.3439,0.3455,0.349,0.3514,0.3545,0.3629,0.3632,0.3669,0.3682,0.3693,0.3703,0.3749,0.3767,0.3583,0.3583,0.3583,0,0,0.3365,0.3369,0.3394,0.3429,0.3439,0.3479,0.3417,0.3462,0.3492,0.3443,0.3504,0.3506,0.3523,0.3597,0.363,0.3603,0.3754,0.3702,0.3711,0.3715,0.3759,0.3776,0.3792,0.3588,0.3587,0.3586,0,0,0.3479,0.3485,0.3542,0.3552,0.3567,0.3558,0.3572,0.3579,0.3579,0.3638,0.3603,0.3638,0.3698,0.3712,0.3727,0.3845,0.3818,0.3855,0.3926,0.3971,0.3985,0.3998,0.4043,0.4059,0.3865,0.3865,0.3865,0,0.3541,0.36,0.3574,0.3622,0.364,0.3594,0.3653,0.3664,0.3689,0.3703,0.3671,0.3746,0.3754,0.3832,0.386,0.3873,0.3889,0.3856,0.3985,0.3998,0.4009,0.4052,0.4069,0.387,0.3869,0.3869,0.3868,0,0.3677,0.3718,0.3762,0.3786,0.3808,0.3861,0.3844,0.3869,0.385,0.3846,0.3908,0.3915,0.3948,0.3964,0.3947,0.404,0.4023,0.3989,0.3935,0.4032,0.4072,0.4088,0.3877,0.3875,0.3873,0.3872,0,0,0.3841,0.3849,0.3866,0.3877,0.3889,0.3921,0.3971,0.4003,0.4026,0.4043,0.4087,0.4138,0.4106,0.4123,0.4106,0.4145,0.4242,0.4106,0.4106,0.4134,0.4348,0.4377,0.4397,0.4222,0.4225,0.4227,0.4348,0,0.3956,0.4044,0.4022,0.4109,0.4148,0.4104,0.4148,0.4161,0.4158,0.419,0.4186,0.4224,0.4177,0.4187,0.4224,0.4222,0.4285,0.4213,0.4265,0.4267,0.4267,0.4417,0.4448,0.4562,0.4363,0.4366,0.4368,0,0.4104,0.4127,0.4218,0.4225,0.424,0.428,0.4308,0.4338,0.4352,0.4347,0.4365,0.434,0.4391,0.4333,0.4405,0.4356,0.4376,0.4378,0.4382,0.439,0.4327,0.4432,0.4597,0.4616,0.4391,0.4389,0.4388,0,0.4219,0.4272,0.4334,0.4344,0.4352,0.4382,0.4387,0.4397,0.4417,0.4441,0.4454,0.4483,0.4501,0.4524,0.4508,0.4467,0.4584,0.4524,0.4583,0.4584,0.4613,0.4613,0.4788,0.4619,0.4619,0.4618,0.4618,0,0.4353,0.4412,0.4386,0.4424,0.4488,0.4462,0.4527,0.4526,0.4536,0.4574,0.4537,0.4574,0.4549,0.4584,0.4572,0.4635,0.4641,0.464,0.4637,0.4646,0.4647,0.4662,0.4655,0.4623,0.4622,0.4621,0.462,0,0.4494,0.4479,0.4544,0.4545,0.4547,0.4595,0.4596,0.4633,0.4624,0.4674,0.4684,0.4673,0.4712,0.4697,0.4739,0.4731,0.4812,0.4796,0.4808,0.4806,0.4867,0.4863,0.5061,0.5087,0.4898,0.49,0.4901,0,0.4583,0.4627,0.4633,0.4655,0.4663,0.4699,0.472,0.4695,0.4718,0.4736,0.4771,0.4807,0.4835,0.49,0.4896,0.4929,0.4916,0.4983,0.4921,0.4929,0.4922,0.4921,0.4927,0.4997,0.4999,0.5001,0.5002,0,0.4744,0.4734,0.4764,0.4792,0.4817,0.4838,0.4856,0.4876,0.4852,0.488,0.492,0.4941,0.4983,0.5021,0.5049,0.5055,0.5027,0.5021,0.5037,0.5049,0.5056,0.5057,0.4846,0.5018,0.5017,0.5015,0.5015,0.5014,0.4864,0.4901,0.4912,0.4947,0.4957,0.4974,0.5009,0.5005,0.5037,0.507,0.5052,0.5099,0.5111,0.5147,0.5156,0.5193,0.5168,0.519,0.5196,0.5203,0.5213,0.5046,0.5198,0.5197,0.5197,0.5196,0.5196,0,0.5026,0.503,0.5062,0.5088,0.5116,0.5083,0.51,0.5127,0.5168,0.5181,0.5209,0.5255,0.5291,0.5289,0.5322,0.5352,0.534,0.5362,0.5362,0.5364,0.5233,0.5217,0.5371,0.5371,0.5371,0.5371,0.5371,0.5371,0.5114,0.5176,0.5167,0.5235,0.5238,0.5283,0.5296,0.5313,0.5323,0.5376,0.5405,0.5403,0.5411,0.5444,0.5475,0.5474,0.549,0.5518,0.5512,0.539,0.5373,0.5357,0.5342,0.552,0.552,0.5641,0.5642,0.5643]}]]